Regional Weather Roundup
Issued by NWS Nashville, TN

Home | Current Version | Previous Version | Text Only | Print | Product List | Glossary On
Versions: 1 2 3 4 5 6 7 8 9 10 11 12 13 14 15 16 17 18 19 20 21 22 23 24 25 26 27 28 29 30 31 32 33 34 35 36 37 38 39 40 41 42 43 44 45 46 47 48 49 50
000
ASUS44 KOHX 210015
RWROHX
MIDDLE TENNESSEE HOURLY WEATHER ROUNDUP
NATIONAL WEATHER SERVICE NASHVILLE TN
600 PM CST SAT DEC 20 2014

NOTE: "FAIR" INDICATES FEW OR NO CLOUDS BELOW 12,000 FEET WITH
NO SIGNIFICANT WEATHER AND/OR OBSTRUCTIONS TO VISIBILITY.

* THESE REPORTS ARE NOT UNDER NWS QUALITY CONTROL AND MAY NOT
  REPORT WEATHER SUCH AS PRECIPITATION AND FOG.


TNZ005>011-023>034-057-059-062>066-078-080-210100
...NORTHERN MIDDLE TENNESSEE...

CITY           SKY/WX    TMP DP  RH WIND       PRES   REMARKS
CLARKSVILLE    CLEAR     36  27  69 CALM      30.27R
CROSSVILLE     PTCLDY    39  26  59 N3        30.20R
GALLATIN         N/A     36  28  73 N5        30.26R WCI  32
DICKSON        CLEAR     36  27  69 NE3       30.23S
LEBANON        CLEAR     38  28  67 N5        30.24R WCI  34
LIVINGSTON     CLEAR     36  26  67 NE3       30.23
NASHVILLE      MOCLDY    39  29  67 N7        30.26R WCI  34
WEST NASHVILLE   N/A     37  28  70 N5        30.26R WCI  34
PORTLAND       CLEAR     34  27  75 CALM      30.24S
SMYRNA         PTCLDY    40  30  67 N8        30.27R WCI  34
SPARTA         CLEAR     30  27  86 CALM      30.22R
$$
TNZ056-058-060-061-075>077-079-093>097-210100
...SOUTHERN MIDDLE TENNESSEE...

CITY           SKY/WX    TMP DP  RH WIND       PRES   REMARKS
COLUMBIA       PTCLDY    43  30  61 N3        30.22R
LEWISBURG      CLEAR     37  30  76 N3        30.23R
MCMINNVILLE    CLEAR     36  28  75 CALM      30.22R
MURFREESBORO   CLEAR     39  29  68 N3        30.24R
SHELBYVILLE    CLEAR     37  30  75 N5        30.24R WCI  34
TULLAHOMA      CLEAR     37  27  65 N3        30.22R
WINCHESTER     CLEAR     41  28  60 N3        30.21S
$$


...KEY TO REMARKS...
VSB - VISIBILITY IN MILES
WCI - WIND CHILL INDEX
HX  - HEAT INDEX



USA.gov is the U.S. government's official web portal to all federal, state and local government web resources and services.